Home > Weather > Port Said > Past weeks

Flag for Egypt Past Weather in Port Said, Egypt — Yesterday and Last 2 Weeks

Now
81 °F

Clear.


Feels Like: 87 °F
Forecast: 78 / 85 °F
Wind: 12 mph from Northwest

Location: Port Said Airport

Current Time: Jul 29, 2016 at 9:47:21 PM

Latest Report: Jul 29, 2016 at 9:00 PM


Visibility: 10 mi

Pressure: 29.71 "Hg

Humidity: 89%

Dew Point: 77 °F

Location of Port SaidLocation

Past Weather in Port Said — Graph

°F

Port Said Temperature Yesterday

Maximum temperature yesterday: 86 °F (at 2:00 PM)
Minimum temperature yesterday: 77 °F (at 3:00 AM)
Average temperature yesterday: 81 °F

High & Low Weather Summary for the Past Weeks

 TemperatureHumidityPressure
High90 °F (Jul 15, 1:00 PM)100% (Jul 20, 9:00 AM)29.92 "Hg (Jul 20, 9:00 AM)
Low75 °F (Jul 18, 6:00 AM)49% (Jul 15, 12:00 PM)29.65 "Hg (Jul 19, 3:00 PM)
Average82 °F74%29.76 "Hg
* Reported Jul 14 8:00 PM — Jul 29 8:00 PM, Port Said, Weather by CustomWeather, © 2016

Note: Actual official high and low records may vary slightly from our data, if they occured in-between our weather recording intervals... More about our weather records

Advertising

Port Said Weather History for the Previous 24 Hours

Scroll right to see more
 ConditionsComfort  
Time TempWeatherWind HumidityBarometerVisibility
8:00 PM
Fri, Jul 29
81 °FClear.10 mph89%29.71 "Hg10 mi
7:00 PM82 °FClear.13 mph84%29.68 "Hg10 mi
6:00 PM84 °FSunny.13 mph79%29.68 "Hg10 mi
5:00 PM84 °FSunny.14 mph79%29.68 "Hg10 mi
4:00 PM84 °FSunny.15 mph74%29.68 "Hg10 mi
3:00 PM86 °FSunny.13 mph70%29.71 "Hg10 mi
2:00 PM86 °FSunny.13 mph70%29.71 "Hg10 mi
1:00 PM86 °FSunny.10 mph66%29.71 "Hg10 mi
12:00 PM86 °FSunny.10 mph66%29.71 "Hg10 mi
11:00 AM84 °FSunny.7 mph66%29.74 "Hg10 mi
10:00 AM82 °FSunny.6 mph70%29.74 "Hg10 mi
9:00 AM82 °FPassing clouds.6 mph70%29.74 "HgN/A
8:00 AM81 °FScattered clouds.5 mph74%29.74 "HgN/A
7:00 AM79 °FScattered clouds.7 mph79%29.74 "HgN/A
6:00 AM79 °FScattered clouds.6 mph74%29.74 "HgN/A
5:00 AM77 °FPassing clouds.5 mph79%29.71 "HgN/A
4:00 AM77 °FClear.6 mph79%29.71 "Hg10 mi
3:00 AM79 °FClear.7 mph74%29.71 "Hg10 mi
2:00 AM79 °FClear.8 mph74%29.71 "Hg10 mi
1:00 AM79 °FPassing clouds.7 mph79%29.74 "HgN/A
12:00 AM79 °FPassing clouds.6 mph79%29.74 "HgN/A
11:00 PM
Thu, Jul 28
79 °FPassing clouds.7 mph79%29.74 "HgN/A
10:00 PM81 °FPassing clouds.9 mph74%29.74 "HgN/A
9:00 PM81 °FPassing clouds.8 mph79%29.74 "HgN/A
Weather by CustomWeather, © 2016

See weather overviewHow to use our weather pages